EW9837 Weather Reports


Display with metric or nautical units.
time (UTC)temp
F
wind
direction
speed
MPH
gust
MPH
rain 1hr
in
rain 24hr
in
rain mn
in
humidity
%
barometer
mb
20260903000031 55 315 0.0 1.0 0.04 0.15 0.14 95 1010.4
20260902234534 55 315 1.0 3.0 0.04 0.14 0.12 95 1010.2
20260902233036 56 315 3.0 5.0 0.03 0.12 0.12 95 1010.3
20260902231535 56 330 3.0 5.0 0.03 0.12 0.11 95 1010.4
20260902230034 55 327 1.0 5.0 0.03 0.11 0.10 95 1010.6
20260902224533 55 326 3.0 6.0 0.04 0.10 0.09 95 1010.4
20260902223036 55 306 1.0 5.0 0.03 0.09 0.09 94 1010.4
20260902221534 55 324 4.0 8.0 0.05 0.09 0.08 94 1010.3
20260902220030 56 330 4.0 10.0 0.04 0.08 0.06 93 1010.2
20260902211535 56 326 2.0 5.0 0.03 0.04 0.04 90 1010.0
20260902210041 56 349 2.0 5.0 0.04 0.04 0.04 89 1010.1
20260902210034 56 37 1.0 4.0 0.04 0.04 0.02 88 1010.2
20260902201535 57 342 3.0 6.0 0.01 0.01 0.00 84 1010.4
20260902194608 58 10 5.0 12.0 0.00 0.00 0.00 79 1010.3
20260902193033 58 137 1.0 9.0 0.00 0.00 0.00 78 1010.3
20260902191553 59 63 4.0 9.0 0.00 0.00 0.00 80 1010.3
20260902190034 59 23 3.0 5.0 0.00 0.00 0.00 78 1010.4
20260902184642 59 85 0.0 3.0 0.00 0.00 0.00 76 1010.4
20260902183107 60 273 0.0 2.0 0.00 0.00 0.00 75 1010.5
20260902181532 59 291 1.0 4.0 0.00 0.00 0.00 76 1010.4
20260902180031 59 360 0.0 3.0 0.00 0.00 0.00 77 1010.4
20260902174535 58 359 1.0 5.0 0.00 0.00 0.00 75 1010.3
20260902173037 60 318 2.0 7.0 0.00 0.00 0.00 74 1010.4
20260902171529 59 310 1.0 5.0 0.00 0.00 0.00 77 1010.6
20260902170035 58 325 2.0 4.0 0.00 0.00 0.00 78 1010.7
20260902164534 57 317 2.0 4.0 0.00 0.00 0.00 79 1010.9
20260902163030 57 5 3.0 5.0 0.00 0.00 0.00 80 1011.0
20260902161534 57 50 2.0 5.0 0.00 0.00 0.00 81 1011.2
20260902160035 57 36 2.0 5.0 0.00 0.00 0.00 81 1011.4
20260902151605 54 40 0.0 4.0 0.00 0.00 0.00 93 1011.5
20260902150034 53 101 0.0 3.0 0.00 0.00 0.00 94 1011.6
20260902144535 52 144 1.0 3.0 0.00 0.00 0.00 95 1011.8
20260902143108 50 157 0.0 2.0 0.00 0.00 0.00 95 1011.8
20260902141532 49 141 2.0 4.0 0.00 0.00 0.00 95 1011.9
20260902140036 47 175 3.0 4.0 0.00 0.00 0.00 94 1012.0
20260902134535 46 158 3.0 5.0 0.00 0.00 0.00 93 1011.8
20260902133033 46 178 2.0 4.0 0.00 0.00 0.00 92 1011.9
20260902131643 45 164 3.0 4.0 0.00 0.00 0.00 92 1011.9
20260902130034 45 164 2.0 5.0 0.00 0.00 0.00 92 1011.9
20260902124536 45 154 2.0 4.0 0.00 0.00 0.00 90 1011.9
20260902123034 46 185 3.0 4.0 0.00 0.00 0.00 89 1012.0
20260902121533 46 155 2.0 5.0 0.00 0.00 0.00 87 1012.1
20260902120106 48 165 0.0 3.0 0.00 0.00 0.00 85 1012.2
20260902114608 49 94 0.0 4.0 0.00 0.00 0.00 84 1012.2
20260902111641 53 107 2.0 6.0 0.00 0.00 0.00 77 1012.0
20260902110107 55 197 4.0 12.0 0.00 0.00 0.00 73 1012.2
20260902104534 56 326 6.0 14.0 0.00 0.00 0.00 72 1012.3
20260902103034 56 307 5.0 15.0 0.00 0.00 0.00 72 1012.5
20260902101536 56 292 5.0 19.0 0.00 0.00 0.00 72 1012.6
20260902100034 57 309 6.0 15.0 0.00 0.00 0.00 71 1012.8
20260902094644 57 319 7.0 14.0 0.00 0.00 0.00 71 1012.9
20260902093032 57 320 7.0 14.0 0.00 0.00 0.00 71 1013.0
20260902091537 57 317 6.0 14.0 0.00 0.00 0.00 71 1013.0
20260902090037 57 316 5.0 13.0 0.00 0.00 0.00 71 1013.0
20260902084536 57 324 6.0 13.0 0.00 0.00 0.00 71 1013.0
20260902081605 57 316 4.0 10.0 0.00 0.00 0.00 72 1013.2
20260902080028 56 320 5.0 11.0 0.00 0.00 0.00 73 1013.2
20260902071611 57 325 7.0 16.0 0.00 0.00 0.00 72 1013.4
20260902070030 57 323 6.0 14.0 0.00 0.00 0.00 72 1013.6
20260902064534 58 312 6.0 15.0 0.00 0.00 0.00 71 1013.8
20260902063030 58 315 5.0 14.0 0.00 0.00 0.00 71 1014.0
20260902061536 59 318 6.0 15.0 0.00 0.00 0.00 70 1014.1
20260902060037 59 315 4.0 10.0 0.00 0.00 0.00 69 1014.3
20260902054531 59 308 6.0 17.0 0.00 0.00 0.00 69 1014.2
20260902053032 59 309 3.0 10.0 0.00 0.00 0.00 69 1014.0
20260902051535 59 301 5.0 16.0 0.00 0.00 0.00 69 1014.0
20260902050034 59 304 5.0 17.0 0.00 0.00 0.00 70 1014.0
20260902044532 59 292 3.0 10.0 0.00 0.00 0.00 70 1013.7
20260902043052 59 308 4.0 11.0 0.00 0.00 0.00 69 1013.7
20260902041532 59 348 4.0 12.0 0.00 0.00 0.00 69 1013.6
20260902040035 59 343 3.0 8.0 0.00 0.00 0.00 69 1013.4
20260902034607 59 335 4.0 10.0 0.00 0.00 0.00 68 1013.1
20260902033035 60 306 4.0 11.0 0.00 0.00 0.00 67 1013.1
20260902031537 60 325 9.0 18.0 0.00 0.00 0.00 67 1012.9
20260902030035 60 303 6.0 20.0 0.00 0.00 0.00 67 1013.0
20260902024536 60 309 5.0 13.0 0.00 0.00 0.00 67 1013.2
20260902023106 60 302 4.0 13.0 0.00 0.00 0.00 66 1012.9
20260902020035 61 316 4.0 13.0 0.00 0.00 0.00 64 1013.0
20260902014533 62 299 5.0 15.0 0.00 0.00 0.00 62 1012.8
20260902013033 63 294 5.0 18.0 0.00 0.00 0.00 61 1012.7
20260902010035 64 310 7.0 15.0 0.00 0.00 0.00 60 1012.5
20260902004538 65 325 7.0 17.0 0.00 0.00 0.00 60 1012.3
20260902003035 65 317 5.0 16.0 0.00 0.00 0.00 61 1012.1
20260902001537 65 324 9.0 19.0 0.00 0.00 0.00 59 1012.0